• en France
  • Liste des pays
  • À 7 jours
  • Température de l'eau
  • Carte satellitaire
  • Carte météo
  • Widgets météo
  • user-avatar
    Se connecter

    Météo par heure à Chernobozhe

    Ce jour, 22 Septembre, Samedi

    Heure Température Précipitation Vent Pression Humidité
    00:00 +19°C° 0 mm 4 m/s 751 mmHg 80%
    01:00 +18°C° 0 mm 4 m/s 751 mmHg 78%
    02:00 +18°C° 0 mm 4 m/s 750 mmHg 77%
    03:00 +17°C° 0 mm 5 m/s 749 mmHg 75%
    04:00 +17°C° 0 mm 5 m/s 749 mmHg 73%
    05:00 +17°C° 0 mm 5 m/s 748 mmHg 71%
    06:00 +19°C° 0 mm 5 m/s 748 mmHg 69%
    07:00 +19°C° 0 mm 5 m/s 748 mmHg 68%
    08:00 +19°C° 0 mm 6 m/s 747 mmHg 67%
    09:00 +20°C° 0.1 mm 6 m/s 747 mmHg 67%
    10:00 +20°C° 0.1 mm 6 m/s 747 mmHg 67%
    11:00 +21°C° 0.1 mm 6 m/s 747 mmHg 66%
    12:00 +17°C° 0.7 mm 5 m/s 748 mmHg 74%
    13:00 +15°C° 0.7 mm 4 m/s 748 mmHg 82%
    14:00 +12°C° 0.7 mm 4 m/s 748 mmHg 90%
    15:00 +12°C° 0.5 mm 3 m/s 749 mmHg 91%
    16:00 +12°C° 0.5 mm 3 m/s 749 mmHg 91%
    17:00 +12°C° 0.5 mm 3 m/s 749 mmHg 92%
    18:00 +11°C° 0.4 mm 3 m/s 749 mmHg 91%
    19:00 +11°C° 0.4 mm 3 m/s 749 mmHg 91%
    20:00 +11°C° 0.4 mm 4 m/s 749 mmHg 90%
    21:00 +11°C° 0.3 mm 3 m/s 749 mmHg 90%
    22:00 +11°C° 0.3 mm 3 m/s 749 mmHg 90%
    23:00 +10°C° 0.3 mm 3 m/s 749 mmHg 90%

    Demain, 23 Septembre, Dimanche

    Heure Température Précipitation Vent Pression Humidité
    00:00 +10°C° 0 mm 3 m/s 749 mmHg 91%
    01:00 +10°C° 0 mm 3 m/s 749 mmHg 92%
    02:00 +9°C° 0 mm 3 m/s 749 mmHg 93%
    03:00 +9°C° 0 mm 3 m/s 749 mmHg 94%
    04:00 +8°C° 0 mm 3 m/s 748 mmHg 94%
    05:00 +8°C° 0 mm 3 m/s 748 mmHg 95%
    06:00 +8°C° 0 mm 4 m/s 748 mmHg 93%
    07:00 +8°C° 0 mm 4 m/s 748 mmHg 90%
    08:00 +10°C° 0 mm 4 m/s 748 mmHg 88%
    09:00 +10°C° 0 mm 4 m/s 747 mmHg 85%
    10:00 +10°C° 0 mm 5 m/s 747 mmHg 81%
    11:00 +10°C° 0 mm 5 m/s 747 mmHg 77%
    12:00 +12°C° 0.1 mm 5 m/s 747 mmHg 75%
    13:00 +12°C° 0.1 mm 5 m/s 747 mmHg 72%
    14:00 +13°C° 0.1 mm 5 m/s 747 mmHg 69%
    15:00 +12°C° 0.1 mm 5 m/s 747 mmHg 72%
    16:00 +12°C° 0.1 mm 4 m/s 747 mmHg 74%
    17:00 +11°C° 0.1 mm 4 m/s 747 mmHg 76%
    18:00 +11°C° 0.3 mm 3 m/s 747 mmHg 81%
    19:00 +10°C° 0.3 mm 3 m/s 747 mmHg 85%
    20:00 +9°C° 0.3 mm 3 m/s 747 mmHg 89%
    21:00 +9°C° 0.1 mm 3 m/s 747 mmHg 90%
    22:00 +8°C° 0.1 mm 3 m/s 747 mmHg 91%
    23:00 +7°C° 0.1 mm 4 m/s 747 mmHg 93%

    Après-demain, 24 Septembre, Lundi

    Heure Température Précipitation Vent Pression Humidité
    00:00 +8°C° 0 mm 3 m/s 747 mmHg 94%
    01:00 +8°C° 0 mm 3 m/s 747 mmHg 95%
    02:00 +7°C° 0 mm 3 m/s 747 mmHg 95%
    03:00 +7°C° 0 mm 3 m/s 747 mmHg 96%
    04:00 +7°C° 0 mm 3 m/s 746 mmHg 96%
    05:00 +7°C° 0 mm 2 m/s 746 mmHg 97%
    06:00 +7°C° 0 mm 2 m/s 747 mmHg 95%
    07:00 +8°C° 0 mm 2 m/s 747 mmHg 94%
    08:00 +8°C° 0 mm 2 m/s 747 mmHg 92%
    09:00 +10°C° 0 mm 1 m/s 747 mmHg 89%
    10:00 +11°C° 0 mm 1 m/s 746 mmHg 85%
    11:00 +10°C° 0 mm 0 m/s 746 mmHg 82%
    12:00 +12°C° 0.2 mm 1 m/s 746 mmHg 81%
    13:00 +12°C° 0.2 mm 1 m/s 746 mmHg 80%
    14:00 +12°C° 0.2 mm 2 m/s 746 mmHg 80%
    15:00 +10°C° 0.2 mm 2 m/s 746 mmHg 82%
    16:00 +10°C° 0.2 mm 2 m/s 746 mmHg 83%
    17:00 +10°C° 0.2 mm 3 m/s 746 mmHg 85%
    18:00 +9°C° 0.3 mm 3 m/s 746 mmHg 86%
    19:00 +7°C° 0.3 mm 4 m/s 746 mmHg 86%
    20:00 +7°C° 0.3 mm 4 m/s 747 mmHg 87%
    21:00 +6°C° 0.1 mm 4 m/s 747 mmHg 86%
    22:00 +6°C° 0.1 mm 4 m/s 747 mmHg 85%
    23:00 +5°C° 0.1 mm 4 m/s 747 mmHg 84%

    25 Septembre, Mardi

    Heure Température Précipitation Vent Pression Humidité
    00:00 +5°C° 0 mm 4 m/s 748 mmHg 84%
    01:00 +5°C° 0 mm 4 m/s 748 mmHg 85%
    02:00 +4°C° 0 mm 4 m/s 748 mmHg 85%
    03:00 +4°C° 0 mm 4 m/s 749 mmHg 85%
    04:00 +4°C° 0 mm 4 m/s 749 mmHg 85%
    05:00 +4°C° 0 mm 4 m/s 750 mmHg 86%
    06:00 +5°C° 0 mm 5 m/s 750 mmHg 83%
    07:00 +5°C° 0 mm 5 m/s 751 mmHg 80%
    08:00 +5°C° 0 mm 6 m/s 751 mmHg 76%
    09:00 +5°C° 0 mm 6 m/s 752 mmHg 71%
    10:00 +7°C° 0 mm 6 m/s 752 mmHg 66%
    11:00 +8°C° 0 mm 7 m/s 753 mmHg 60%
    12:00 +8°C° 0.1 mm 7 m/s 753 mmHg 57%
    13:00 +9°C° 0.1 mm 7 m/s 754 mmHg 54%
    14:00 +9°C° 0.1 mm 7 m/s 754 mmHg 51%
    15:00 +8°C° 0 mm 6 m/s 755 mmHg 52%
    16:00 +7°C° 0 mm 5 m/s 755 mmHg 53%
    17:00 +7°C° 0 mm 4 m/s 756 mmHg 54%
    18:00 +7°C° 0 mm 3 m/s 756 mmHg 58%
    19:00 +5°C° 0 mm 3 m/s 757 mmHg 62%
    20:00 +4°C° 0 mm 3 m/s 757 mmHg 67%
    21:00 +4°C° 0 mm 3 m/s 757 mmHg 67%
    22:00 +5°C° 0 mm 3 m/s 757 mmHg 68%
    23:00 +6°C° 0 mm 4 m/s 756 mmHg 68%

    26 Septembre, Mercredi

    Heure Température Précipitation Vent Pression Humidité
    00:00 +6°C° 0.1 mm 4 m/s 756 mmHg 72%
    01:00 +6°C° 0.1 mm 4 m/s 756 mmHg 75%
    02:00 +6°C° 0.1 mm 4 m/s 755 mmHg 79%
    03:00 +6°C° 0.2 mm 4 m/s 755 mmHg 83%
    04:00 +6°C° 0.2 mm 4 m/s 755 mmHg 87%
    05:00 +6°C° 0.2 mm 4 m/s 754 mmHg 91%
    06:00 +7°C° 1.3 mm 3 m/s 754 mmHg 93%
    07:00 +7°C° 1.3 mm 3 m/s 753 mmHg 94%
    08:00 +7°C° 1.3 mm 2 m/s 753 mmHg 96%
    09:00 +7°C° 1.3 mm 2 m/s 753 mmHg 95%
    10:00 +7°C° 1.3 mm 2 m/s 752 mmHg 95%
    11:00 +8°C° 1.3 mm 2 m/s 752 mmHg 95%
    12:00 +8°C° 0.8 mm 2 m/s 752 mmHg 94%
    13:00 +8°C° 0.8 mm 3 m/s 751 mmHg 93%
    14:00 +8°C° 0.8 mm 3 m/s 751 mmHg 91%
    15:00 +8°C° 0.7 mm 4 m/s 750 mmHg 92%
    16:00 +8°C° 0.7 mm 4 m/s 749 mmHg 92%
    17:00 +8°C° 0.7 mm 4 m/s 748 mmHg 92%
    18:00 +8°C° 1.2 mm 5 m/s 747 mmHg 92%
    19:00 +8°C° 1.2 mm 5 m/s 746 mmHg 92%
    20:00 +9°C° 1.2 mm 6 m/s 745 mmHg 92%
    21:00 +9°C° 0.8 mm 6 m/s 744 mmHg 92%
    22:00 +10°C° 0.8 mm 6 m/s 743 mmHg 91%
    23:00 +10°C° 0.8 mm 7 m/s 743 mmHg 91%

    27 Septembre, Jeudi

    Heure Température Précipitation Vent Pression Humidité
    00:00 +10°C° 0.2 mm 6 m/s 742 mmHg 91%
    01:00 +11°C° 0.2 mm 6 m/s 742 mmHg 91%
    02:00 +12°C° 0.2 mm 5 m/s 742 mmHg 91%
    03:00 +10°C° 0.2 mm 5 m/s 742 mmHg 91%
    04:00 +10°C° 0.2 mm 5 m/s 743 mmHg 90%
    05:00 +9°C° 0.2 mm 5 m/s 743 mmHg 89%
    06:00 +10°C° 0 mm 4 m/s 743 mmHg 88%
    07:00 +8°C° 0 mm 4 m/s 743 mmHg 87%
    08:00 +9°C° 0 mm 3 m/s 744 mmHg 85%
    09:00 +10°C° 0.1 mm 3 m/s 743 mmHg 82%
    10:00 +11°C° 0.1 mm 3 m/s 743 mmHg 78%
    11:00 +11°C° 0.1 mm 3 m/s 743 mmHg 74%
    12:00 +11°C° 0.8 mm 4 m/s 742 mmHg 78%
    13:00 +11°C° 0.8 mm 4 m/s 742 mmHg 82%
    14:00 +11°C° 0.8 mm 4 m/s 741 mmHg 85%
    15:00 +11°C° 0.1 mm 4 m/s 741 mmHg 84%
    16:00 +10°C° 0.1 mm 4 m/s 741 mmHg 83%
    17:00 +10°C° 0.1 mm 4 m/s 740 mmHg 82%
    18:00 +10°C° 0.3 mm 4 m/s 740 mmHg 84%
    19:00 +8°C° 0.3 mm 4 m/s 740 mmHg 86%
    20:00 +8°C° 0.3 mm 4 m/s 740 mmHg 89%
    21:00 +7°C° 0.2 mm 4 m/s 740 mmHg 89%
    22:00 +7°C° 0.2 mm 4 m/s 740 mmHg 89%
    23:00 +7°C° 0.2 mm 4 m/s 740 mmHg 90%
    Voir plus